Home > Weather > Hopedale > Past weeks

Flag for Canada Weather for the Past 2 Weeks in Hopedale, Newfoundland and Labrador, Canada

Now
32 °F

Chilly.


Feels Like: 16 °F
Forecast: 26 / 35 °F
Wind: 38 mph from North

Location: Hopedale

Current Time: May 1, 2016 at 6:07:56 AM

Latest Report: May 1, 2016 at 5:00 AM


Visibility: N/A

Pressure: 30.24 "Hg

Humidity: 99%

Dew Point: 31 °F

Location of HopedaleLocation

Historic Weather in Hopedale — Graph

°F

Hopedale Temperature Yesterday

Maximum temperature yesterday: 34 °F (at 7:00 PM)
Minimum temperature yesterday: 28 °F (at 5:00 AM)
Average temperature yesterday: 31 °F

High & Low Weather Summary for the Past Weeks

 TemperatureHumidityPressure
High44 °F (Apr 23, 2:00 PM)100% (Apr 22, 1:00 AM)30.62 "Hg (Apr 22, 1:00 AM)
Low9 °F (Apr 27, 5:00 AM)46% (Apr 16, 5:00 PM)29.31 "Hg (Apr 29, 11:00 AM)
Average26 °F83%29.91 "Hg
* Reported Apr 16 4:00 AM — May 1 4:00 AM, Hopedale, Weather by CustomWeather, © 2016

Note: Actual official high and low records may vary slightly from our data, if they occured in-between our weather recording intervals... More about our weather records

Advertising

Hopedale Weather History for the Previous 24 Hours

Scroll right to see more
 ConditionsComfort  
Time TempWeatherWind HumidityBarometerVisibility
4:00 AM
Sun, May 1
32 °FChilly.5 mph98%30.24 "HgN/A
3:00 AM32 °FChilly.23 mph98%30.22 "HgN/A
2:00 AM32 °FChilly.17 mph99%30.22 "HgN/A
1:00 AM31 °FChilly.36 mph100%30.21 "HgN/A
12:00 AM31 °FChilly.30 mph100%30.21 "HgN/A
11:00 PM
Sat, Apr 30
32 °FChilly.20 mph95%30.20 "HgN/A
10:00 PM33 °FChilly.25 mph100%30.20 "HgN/A
9:00 PM34 °FChilly.31 mph91%30.19 "HgN/A
8:00 PM33 °FChilly.25 mph98%30.18 "HgN/A
7:00 PM34 °FChilly.32 mph88%30.17 "HgN/A
6:00 PM33 °FChilly.38 mph87%30.16 "HgN/A
5:00 PM33 °FChilly.40 mph89%30.15 "HgN/A
4:00 PM32 °FChilly.39 mph93%30.14 "HgN/A
3:00 PM31 °FChilly.40 mph95%30.13 "HgN/A
2:00 PM31 °FChilly.39 mph96%30.12 "HgN/A
1:00 PM32 °FChilly.39 mph92%30.11 "HgN/A
12:00 PM31 °FChilly.39 mph94%30.09 "HgN/A
11:00 AM31 °FChilly.40 mph95%30.07 "HgN/A
10:00 AM30 °FChilly.40 mph95%30.04 "HgN/A
9:00 AM30 °FChilly.40 mph95%30.02 "HgN/A
8:00 AM29 °FChilly.40 mph96%30.00 "HgN/A
7:00 AM28 °FChilly.40 mph98%29.96 "HgN/A
6:00 AM28 °FChilly.39 mph99%29.94 "HgN/A
Weather by CustomWeather, © 2016

See weather overviewHow to use our weather pages